When you browse on this site, cookies collect data to enhance your experience and personalize the content and advertising you see.
Visit our Privacy Policy to learn more. By continuing to use the site, you agree to this use of cookies and data.
  • In United Kingdom
  • List of Countries
  • For 7 days
  • Water Temperature
  • Satellite Maps
  • Weather Map
  • Weather Widgets
  • user-avatar
    Login

    Hourly Weather Impfondo

    Today, 25 June, Tuesday

    Time Temperature Precipitation Wind Pressure Humidity
    00:00 +23°C° 0.3 mm 0 mps 731 mmHg 85%
    01:00 +24°C° 0.3 mm 1 mps 730 mmHg 88%
    02:00 +24°C° 0.1 mm 1 mps 730 mmHg 90%
    03:00 +24°C° 0.1 mm 1 mps 730 mmHg 91%
    04:00 +24°C° 0.1 mm 1 mps 730 mmHg 93%
    05:00 +24°C° 0 mm 1 mps 730 mmHg 92%
    06:00 +25°C° 0 mm 1 mps 731 mmHg 91%
    07:00 +25°C° 0 mm 1 mps 732 mmHg 89%
    08:00 +27°C° 0.3 mm 1 mps 732 mmHg 83%
    09:00 +28°C° 0.3 mm 2 mps 732 mmHg 76%
    10:00 +30°C° 0.3 mm 2 mps 732 mmHg 70%
    11:00 +31°C° 0.6 mm 2 mps 732 mmHg 64%
    12:00 +32°C° 0.6 mm 2 mps 731 mmHg 58%
    13:00 +34°C° 0.6 mm 2 mps 731 mmHg 53%
    14:00 +33°C° 0.1 mm 1 mps 730 mmHg 55%
    15:00 +32°C° 0.1 mm 1 mps 730 mmHg 57%
    16:00 +32°C° 0.1 mm 1 mps 729 mmHg 59%
    17:00 +29°C° 0.6 mm 1 mps 730 mmHg 70%
    18:00 +27°C° 0.6 mm 1 mps 730 mmHg 81%
    19:00 +25°C° 0.6 mm 1 mps 730 mmHg 92%
    20:00 +25°C° 0 mm 1 mps 730 mmHg 93%
    21:00 +25°C° 0 mm 1 mps 731 mmHg 93%
    22:00 +24°C° 0 mm 1 mps 731 mmHg 94%
    23:00 +24°C° 0 mm 1 mps 731 mmHg 93%

    Tomorrow, 26 June, Wednesday

    Time Temperature Precipitation Wind Pressure Humidity
    00:00 +24°C° 0 mm 1 mps 731 mmHg 93%
    01:00 +24°C° 0 mm 1 mps 730 mmHg 93%
    02:00 +24°C° 0.2 mm 1 mps 730 mmHg 93%
    03:00 +24°C° 0.2 mm 1 mps 730 mmHg 94%
    04:00 +24°C° 0.2 mm 1 mps 730 mmHg 94%
    05:00 +24°C° 0.3 mm 1 mps 731 mmHg 94%
    06:00 +24°C° 0.3 mm 1 mps 731 mmHg 94%
    07:00 +24°C° 0.3 mm 1 mps 732 mmHg 94%
    08:00 +25°C° 0.1 mm 1 mps 732 mmHg 93%
    09:00 +25°C° 0.1 mm 1 mps 733 mmHg 92%
    10:00 +25°C° 0.1 mm 1 mps 733 mmHg 91%
    11:00 +26°C° 0.2 mm 1 mps 732 mmHg 87%
    12:00 +27°C° 0.2 mm 1 mps 732 mmHg 82%
    13:00 +28°C° 0.2 mm 1 mps 731 mmHg 77%
    14:00 +29°C° 1 mm 1 mps 731 mmHg 76%
    15:00 +29°C° 1 mm 1 mps 730 mmHg 74%
    16:00 +30°C° 1 mm 1 mps 730 mmHg 73%
    17:00 +28°C° 1.4 mm 1 mps 730 mmHg 79%
    18:00 +27°C° 1.4 mm 1 mps 731 mmHg 84%
    19:00 +23°C° 1.4 mm 0 mps 731 mmHg 90%
    20:00 +23°C° 1.4 mm 0 mps 732 mmHg 92%
    21:00 +25°C° 1.4 mm 1 mps 732 mmHg 94%
    22:00 +24°C° 1.4 mm 1 mps 732 mmHg 96%
    23:00 +24°C° 0.2 mm 1 mps 732 mmHg 95%

    Day after tomorrow, 27 June, Thursday

    Time Temperature Precipitation Wind Pressure Humidity
    00:00 +24°C° 0.2 mm 1 mps 732 mmHg 95%
    01:00 +24°C° 0.2 mm 1 mps 732 mmHg 95%
    02:00 +24°C° 0.4 mm 1 mps 732 mmHg 95%
    03:00 +23°C° 0.4 mm 1 mps 732 mmHg 95%
    04:00 +23°C° 0.4 mm 1 mps 732 mmHg 95%
    05:00 +23°C° 0.1 mm 1 mps 732 mmHg 94%
    06:00 +24°C° 0.1 mm 1 mps 732 mmHg 94%
    07:00 +24°C° 0.1 mm 1 mps 733 mmHg 93%
    08:00 +26°C° 0 mm 1 mps 733 mmHg 83%
    09:00 +28°C° 0 mm 2 mps 733 mmHg 73%
    10:00 +30°C° 0 mm 2 mps 733 mmHg 64%
    11:00 +31°C° 0 mm 2 mps 733 mmHg 60%
    12:00 +31°C° 0 mm 2 mps 732 mmHg 57%
    13:00 +32°C° 0 mm 1 mps 732 mmHg 54%
    14:00 +32°C° 0 mm 1 mps 731 mmHg 55%
    15:00 +31°C° 0 mm 1 mps 731 mmHg 57%
    16:00 +31°C° 0 mm 1 mps 730 mmHg 58%
    17:00 +29°C° 0 mm 1 mps 730 mmHg 65%
    18:00 +27°C° 0 mm 1 mps 731 mmHg 72%
    19:00 +26°C° 0 mm 1 mps 731 mmHg 78%
    20:00 +23°C° 0 mm 0 mps 731 mmHg 80%
    21:00 +23°C° 0 mm 0 mps 732 mmHg 81%
    22:00 +22°C° 0 mm 0 mps 732 mmHg 83%
    23:00 +22°C° 0 mm 0 mps 732 mmHg 84%

    28 June, Friday

    Time Temperature Precipitation Wind Pressure Humidity
    00:00 +22°C° 0 mm 0 mps 732 mmHg 86%
    01:00 +21°C° 0 mm 0 mps 731 mmHg 87%
    02:00 +21°C° 0 mm 0 mps 731 mmHg 88%
    03:00 +21°C° 0 mm 0 mps 731 mmHg 88%
    04:00 +21°C° 0 mm 0 mps 731 mmHg 89%
    05:00 +22°C° 0 mm 0 mps 731 mmHg 87%
    06:00 +23°C° 0 mm 0 mps 732 mmHg 86%
    07:00 +23°C° 0 mm 0 mps 732 mmHg 84%
    08:00 +26°C° 0 mm 0 mps 733 mmHg 73%
    09:00 +31°C° 0 mm 1 mps 733 mmHg 62%
    10:00 +33°C° 0 mm 1 mps 733 mmHg 51%
    11:00 +33°C° 0 mm 1 mps 732 mmHg 49%
    12:00 +34°C° 0 mm 1 mps 732 mmHg 48%
    13:00 +34°C° 0 mm 1 mps 731 mmHg 46%
    14:00 +33°C° 0.1 mm 1 mps 730 mmHg 50%
    15:00 +33°C° 0.1 mm 1 mps 730 mmHg 54%
    16:00 +32°C° 0.1 mm 1 mps 730 mmHg 58%
    17:00 +30°C° 0 mm 1 mps 730 mmHg 63%
    18:00 +29°C° 0 mm 1 mps 730 mmHg 68%
    19:00 +27°C° 0 mm 1 mps 730 mmHg 73%
    20:00 +25°C° 0 mm 0 mps 731 mmHg 75%
    21:00 +24°C° 0 mm 0 mps 731 mmHg 77%
    22:00 +24°C° 0 mm 0 mps 732 mmHg 79%
    23:00 +24°C° 0.1 mm 0 mps 732 mmHg 80%

    29 June, Saturday

    Time Temperature Precipitation Wind Pressure Humidity
    00:00 +23°C° 0.1 mm 0 mps 731 mmHg 82%
    01:00 +25°C° 0.1 mm 1 mps 731 mmHg 84%
    02:00 +25°C° 0.1 mm 1 mps 731 mmHg 86%
    03:00 +22°C° 0.1 mm 0 mps 731 mmHg 88%
    04:00 +22°C° 0.1 mm 0 mps 731 mmHg 91%
    05:00 +25°C° 0 mm 1 mps 731 mmHg 89%
    06:00 +25°C° 0 mm 1 mps 732 mmHg 88%
    07:00 +26°C° 0 mm 1 mps 732 mmHg 86%
    08:00 +28°C° 0 mm 1 mps 733 mmHg 75%
    09:00 +31°C° 0 mm 1 mps 733 mmHg 64%
    10:00 +33°C° 0 mm 1 mps 733 mmHg 53%
    11:00 +35°C° 0 mm 1 mps 732 mmHg 48%
    12:00 +35°C° 0 mm 0 mps 732 mmHg 43%
    13:00 +36°C° 0 mm 0 mps 731 mmHg 38%
    14:00 +34°C° 0 mm 0 mps 731 mmHg 44%
    15:00 +33°C° 0 mm 0 mps 730 mmHg 49%
    16:00 +31°C° 0 mm 0 mps 729 mmHg 55%
    17:00 +29°C° 0.5 mm 0 mps 730 mmHg 64%
    18:00 +29°C° 0.5 mm 1 mps 730 mmHg 74%
    19:00 +26°C° 0.5 mm 1 mps 730 mmHg 83%
    20:00 +26°C° 1.3 mm 1 mps 731 mmHg 87%
    21:00 +23°C° 1.3 mm 0 mps 731 mmHg 91%
    22:00 +23°C° 1.3 mm 0 mps 732 mmHg 95%
    23:00 +23°C° 0.4 mm 0 mps 731 mmHg 94%

    30 June, Sunday

    Time Temperature Precipitation Wind Pressure Humidity
    00:00 +23°C° 0.4 mm 0 mps 731 mmHg 92%
    01:00 +23°C° 0.4 mm 0 mps 731 mmHg 91%
    02:00 +22°C° 0 mm 0 mps 731 mmHg 92%
    03:00 +22°C° 0 mm 0 mps 731 mmHg 93%
    04:00 +22°C° 0 mm 0 mps 731 mmHg 94%
    05:00 +22°C° 0 mm 0 mps 731 mmHg 93%
    06:00 +23°C° 0 mm 0 mps 732 mmHg 93%
    07:00 +23°C° 0 mm 0 mps 732 mmHg 92%
    08:00 +26°C° 0 mm 0 mps 733 mmHg 80%
    09:00 +31°C° 0 mm 1 mps 733 mmHg 68%
    10:00 +34°C° 0 mm 1 mps 733 mmHg 56%
    11:00 +35°C° 0 mm 1 mps 732 mmHg 50%
    12:00 +36°C° 0 mm 1 mps 732 mmHg 44%
    13:00 +39°C° 0 mm 1 mps 731 mmHg 38%
    14:00 +36°C° 0.1 mm 1 mps 730 mmHg 45%
    15:00 +34°C° 0.1 mm 1 mps 730 mmHg 51%
    16:00 +32°C° 0.1 mm 2 mps 729 mmHg 58%
    17:00 +30°C° 0.7 mm 1 mps 729 mmHg 67%
    18:00 +29°C° 0.7 mm 1 mps 730 mmHg 77%
    19:00 +25°C° 0.7 mm 0 mps 730 mmHg 86%
    20:00 +26°C° 0.7 mm 1 mps 730 mmHg 88%
    21:00 +26°C° 0.7 mm 1 mps 731 mmHg 89%
    22:00 +26°C° 0.7 mm 1 mps 732 mmHg 90%
    23:00 +26°C° 0.6 mm 1 mps 731 mmHg 91%
    Show more